{"data":{"norad_id":60574,"epoch":"2026-09-22T17:26:14.691552Z","epoch_age_seconds":96644,"freshness":"FRESH","line1":"1 60574U 24149DL  26265.72655893  .00001581  00000+0  12592-3 0  9994","line2":"2 60574  97.7046 343.1617 0008259 169.3680 190.7721 15.01779410114793","mean_motion":15.0177941,"eccentricity":0.0008259,"inclination_deg":97.7046,"raan_deg":343.1617,"arg_perigee_deg":169.368,"mean_anomaly_deg":190.7721,"bstar":0.00012592,"rev_number":11479,"period_min":95.886252695394,"perigee_km":555.67792638651,"apogee_km":567.14066896101,"semimajor_km":6939.5462976738,"source":"CELESTRAK","updated_at":"2026-09-23T09:00:20.702952Z"}}